User: anonymous
Location: Waldport
(44.4270°N, 124.0680°W)
Time: 23:23:25
(UTC-07:00)
Language:

Cosmos 1023 Rocket - Orbit

View from above orbital plane
View from above orbital plane
View from above satellite
View from above satellite

Ground track
Ground track

The orbit data is extracted from the following two-line orbital elements,

1 10962U 78063B   14274.07507053  .00000500  00000-0  16399-3 0  8600
2 10962 074.0802 246.3413 0024639 041.4048 026.7359 14.40715448903270
Epoch (UTC): 01 October 2014 01:48:06
Eccentricity: 0.0024639
inclination: 74.0802°
perigee height: 738 km
apogee height: 774 km
right ascension of ascending node: 246.3413°
argument of perigee: 41.4048°
revolutions per day: 14.40715448
mean anomaly at epoch: 26.7359°
orbit number at epoch: 90327

The dashed part of the orbit path shows where the satellite is in the earth's shadow,  

DLR